N60SB KLAL-KLAL

Flight info

Callsign N60SB
Flight time 0h 34m
Altitude VFR/030
Route
Aircraft L39/L-DOV/C

Departure

Time 2026-04-22 01:31
Airport Lakeland Linder International Airport (KLAL)

Arrival

Time 2026-04-22 02:05
Airport Lakeland Linder International Airport (KLAL)
Time Latitude Longitude Altitude Speed Heading
2026-04-22 01:17 27.98767 -82.00994 116 ft 0 kts 283°
2026-04-22 01:21 27.98750 -82.01064 145 ft 12 kts 250°
2026-04-22 01:21 27.98738 -82.01136 146 ft 10 kts 265°
2026-04-22 01:21 27.98731 -82.01264 146 ft 21 kts 270°
2026-04-22 01:22 27.98716 -82.01393 147 ft 16 kts 243°
2026-04-22 01:22 27.98718 -82.01504 151 ft 12 kts 312°
2026-04-22 01:22 27.98733 -82.01597 152 ft 17 kts 271°
2026-04-22 01:22 27.98728 -82.01763 149 ft 22 kts 274°
2026-04-22 01:23 27.98733 -82.01933 148 ft 21 kts 270°
2026-04-22 01:23 27.98730 -82.02109 148 ft 24 kts 269°
2026-04-22 01:23 27.98739 -82.02283 143 ft 13 kts 320°
2026-04-22 01:23 27.98796 -82.02302 143 ft 7 kts 329°
2026-04-22 01:24 27.98815 -82.02364 143 ft 11 kts 272°
2026-04-22 01:24 27.98816 -82.02481 143 ft 18 kts 268°
2026-04-22 01:24 27.98814 -82.02625 144 ft 19 kts 270°
2026-04-22 01:24 27.98816 -82.02783 142 ft 22 kts 269°
2026-04-22 01:25 27.98816 -82.02970 144 ft 25 kts 270°
2026-04-22 01:25 27.98815 -82.03150 146 ft 20 kts 270°
2026-04-22 01:25 27.98813 -82.03285 147 ft 15 kts 271°
2026-04-22 01:25 27.98821 -82.03354 147 ft 0 kts 311°
2026-04-22 01:26 27.98824 -82.03357 147 ft 4 kts 315°
2026-04-22 01:26 27.98838 -82.03367 147 ft 0 kts 342°
2026-04-22 01:28 27.98872 -82.03377 148 ft 11 kts 352°
2026-04-22 01:28 27.98925 -82.03329 148 ft 9 kts 89°
2026-04-22 01:28 27.98925 -82.03320 147 ft 0 kts 90°
2026-04-22 01:30 27.98924 -82.03117 145 ft 60 kts 90°
2026-04-22 01:30 27.98924 -82.02483 167 ft 96 kts 90°
2026-04-22 01:30 27.98933 -82.01677 255 ft 109 kts 89°
2026-04-22 01:30 27.98924 -82.00782 289 ft 119 kts 90°
2026-04-22 01:31 27.98924 -81.99836 432 ft 117 kts 90°
2026-04-22 01:31 27.98967 -81.98940 684 ft 110 kts 86°
2026-04-22 01:31 27.98986 -81.98096 935 ft 106 kts 90°
2026-04-22 01:31 27.98976 -81.97279 1172 ft 101 kts 89°
2026-04-22 01:32 27.98981 -81.96504 1413 ft 96 kts 89°
2026-04-22 01:32 27.98994 -81.95755 1676 ft 96 kts 88°
2026-04-22 01:32 27.98984 -81.94992 1915 ft 96 kts 90°
2026-04-22 01:32 27.98963 -81.94247 2171 ft 96 kts 90°
2026-04-22 01:33 27.98958 -81.93426 2206 ft 113 kts 86°
2026-04-22 01:33 27.99416 -81.92673 2204 ft 133 kts 34°
2026-04-22 01:33 28.00346 -81.92397 2210 ft 142 kts 28°
2026-04-22 01:33 28.01230 -81.91831 2208 ft 156 kts 39°
2026-04-22 01:34 28.02195 -81.91141 2210 ft 171 kts 39°
2026-04-22 01:34 28.03224 -81.90421 2212 ft 176 kts 39°
2026-04-22 01:34 28.04278 -81.89668 2210 ft 181 kts 38°
2026-04-22 01:34 28.05353 -81.88891 2210 ft 185 kts 39°
2026-04-22 01:35 28.06450 -81.88119 2216 ft 186 kts 37°
2026-04-22 01:35 28.07546 -81.87345 2211 ft 185 kts 38°
2026-04-22 01:35 28.08629 -81.86574 2211 ft 183 kts 39°
2026-04-22 01:35 28.09707 -81.85803 2210 ft 183 kts 38°
2026-04-22 01:36 28.10791 -81.85029 2210 ft 185 kts 38°
2026-04-22 01:36 28.11877 -81.84253 2208 ft 185 kts 38°
2026-04-22 01:36 28.13052 -81.83653 2176 ft 194 kts 14°
2026-04-22 01:36 28.14438 -81.83812 2183 ft 205 kts 354°
2026-04-22 01:37 28.15834 -81.84134 2188 ft 204 kts 354°
2026-04-22 01:37 28.17227 -81.84444 2183 ft 203 kts 355°
2026-04-22 01:37 28.18607 -81.84773 2193 ft 203 kts 354°
2026-04-22 01:37 28.19991 -81.85106 2180 ft 203 kts 354°
2026-04-22 01:38 28.21375 -81.85417 2197 ft 204 kts 355°
2026-04-22 01:38 28.22762 -81.85724 2184 ft 201 kts 357°
2026-04-22 01:38 28.24053 -81.85487 2191 ft 184 kts 36°
2026-04-22 01:38 28.24850 -81.84422 2193 ft 178 kts 64°
2026-04-22 01:39 28.25259 -81.83099 2182 ft 179 kts 83°
2026-04-22 01:39 28.25179 -81.81705 2198 ft 178 kts 103°
2026-04-22 01:39 28.24608 -81.80465 2190 ft 181 kts 126°
2026-04-22 01:39 28.23609 -81.79583 2186 ft 186 kts 149°
2026-04-22 01:40 28.22352 -81.79278 2187 ft 184 kts 175°
2026-04-22 01:40 28.21127 -81.79556 2163 ft 176 kts 190°
2026-04-22 01:40 28.20035 -81.79907 2176 ft 150 kts 186°
2026-04-22 01:40 28.19395 -81.80087 2171 ft 136 kts 184°
2026-04-22 01:41 28.18527 -81.80333 2174 ft 122 kts 186°
2026-04-22 01:41 28.17750 -81.80550 2181 ft 112 kts 184°
2026-04-22 01:41 28.16986 -81.80751 2191 ft 118 kts 183°
2026-04-22 01:41 28.16150 -81.81067 2190 ft 133 kts 196°
2026-04-22 01:42 28.15000 -81.81615 2200 ft 139 kts 193°
2026-04-22 01:42 28.14386 -81.81903 2199 ft 142 kts 195°
2026-04-22 01:42 28.13463 -81.82335 2195 ft 143 kts 194°
2026-04-22 01:42 28.12538 -81.82769 2190 ft 143 kts 194°
2026-04-22 01:43 28.11730 -81.83471 2190 ft 158 kts 235°
2026-04-22 01:43 28.11310 -81.84640 2190 ft 160 kts 245°
2026-04-22 01:43 28.10869 -81.85779 2211 ft 158 kts 241°
2026-04-22 01:43 28.10403 -81.86908 2225 ft 158 kts 241°
2026-04-22 01:44 28.09957 -81.88046 2287 ft 158 kts 244°
2026-04-22 01:44 28.09511 -81.89216 2154 ft 167 kts 242°
2026-04-22 01:44 28.09050 -81.90421 2140 ft 164 kts 243°
2026-04-22 01:44 28.08602 -81.91608 2169 ft 163 kts 243°
2026-04-22 01:45 28.08187 -81.92782 2216 ft 163 kts 246°
2026-04-22 01:45 28.07776 -81.93969 2238 ft 161 kts 243°
2026-04-22 01:45 28.07044 -81.94832 2217 ft 149 kts 193°
2026-04-22 01:45 28.06097 -81.94794 2212 ft 132 kts 147°
2026-04-22 01:46 28.05416 -81.94126 2137 ft 128 kts 123°
2026-04-22 01:46 28.04949 -81.93312 2236 ft 120 kts 110°
2026-04-22 01:46 28.04760 -81.92399 2245 ft 120 kts 92°
2026-04-22 01:46 28.04994 -81.91500 2282 ft 124 kts 62°
2026-04-22 01:47 28.05638 -81.90811 2259 ft 134 kts 38°
2026-04-22 01:47 28.06542 -81.90501 2325 ft 137 kts 20°
2026-04-22 01:47 28.07498 -81.90385 2283 ft 145 kts
2026-04-22 01:47 28.08352 -81.91094 2103 ft 169 kts 301°
2026-04-22 01:48 28.08357 -81.92355 2171 ft 163 kts 246°
2026-04-22 01:48 28.08001 -81.93548 2139 ft 154 kts 251°
2026-04-22 01:48 28.07845 -81.94677 2037 ft 138 kts 266°
2026-04-22 01:48 28.07814 -81.95707 2063 ft 126 kts 268°
2026-04-22 01:49 28.07745 -81.96698 2130 ft 129 kts 258°
2026-04-22 01:49 28.07465 -81.97696 2115 ft 141 kts 243°
2026-04-22 01:49 28.06976 -81.98702 2143 ft 146 kts 232°
2026-04-22 01:49 28.06400 -81.99662 2165 ft 147 kts 228°
2026-04-22 01:50 28.05781 -82.00568 2170 ft 147 kts 224°
2026-04-22 01:50 28.05040 -82.01286 2108 ft 134 kts 200°
2026-04-22 01:50 28.04197 -82.01599 1992 ft 123 kts 181°
2026-04-22 01:50 28.03389 -82.01764 2024 ft 115 kts 176°
2026-04-22 01:51 28.02606 -82.01900 2017 ft 111 kts 175°
2026-04-22 01:51 28.01919 -82.02217 1965 ft 123 kts 238°
2026-04-22 01:51 28.01940 -82.03191 1914 ft 127 kts 281°
2026-04-22 01:51 28.02059 -82.04148 1967 ft 118 kts 279°
2026-04-22 01:52 28.02131 -82.05060 2034 ft 118 kts 273°
2026-04-22 01:52 28.02171 -82.06004 2095 ft 119 kts 275°
2026-04-22 01:52 28.02212 -82.06933 2195 ft 118 kts 272°
2026-04-22 01:52 28.02205 -82.07880 2161 ft 125 kts 268°
2026-04-22 01:53 28.02159 -82.08856 2144 ft 125 kts 263°
2026-04-22 01:53 28.02064 -82.09835 2206 ft 125 kts 264°
2026-04-22 01:53 28.01973 -82.10841 2276 ft 131 kts 261°
2026-04-22 01:53 28.01858 -82.11878 2371 ft 134 kts 260°
2026-04-22 01:54 28.01696 -82.12927 2404 ft 136 kts 257°
2026-04-22 01:54 28.01510 -82.13974 2364 ft 134 kts 255°
2026-04-22 01:54 28.01210 -82.14962 2263 ft 136 kts 241°
2026-04-22 01:54 28.00805 -82.15933 2158 ft 131 kts 232°
2026-04-22 01:55 28.00101 -82.16468 2108 ft 124 kts 182°
2026-04-22 01:55 27.99300 -82.16535 2302 ft 102 kts 153°
2026-04-22 01:55 27.98901 -82.16033 2314 ft 89 kts 97°
2026-04-22 01:55 27.98940 -82.15329 2161 ft 84 kts 87°
2026-04-22 01:56 27.98967 -82.14688 1997 ft 80 kts 89°
2026-04-22 01:56 27.98984 -82.14046 1917 ft 87 kts 89°
2026-04-22 01:56 27.98992 -82.13328 1840 ft 95 kts 89°
2026-04-22 01:56 27.99015 -82.12576 1704 ft 97 kts 88°
2026-04-22 01:57 27.99014 -82.11815 1597 ft 95 kts 92°
2026-04-22 01:57 27.98995 -82.11073 1459 ft 91 kts 91°
2026-04-22 01:57 27.98966 -82.10362 1344 ft 91 kts 94°
2026-04-22 01:57 27.98928 -82.09641 1310 ft 91 kts 92°
2026-04-22 01:58 27.98900 -82.08929 1286 ft 92 kts 90°
2026-04-22 01:58 27.98899 -82.08189 1209 ft 96 kts 87°
2026-04-22 01:58 27.98908 -82.07442 1007 ft 91 kts 90°
2026-04-22 01:58 27.98914 -82.06830 976 ft 76 kts 87°
2026-04-22 01:59 27.98943 -82.06194 935 ft 85 kts 89°
2026-04-22 01:59 27.98938 -82.05553 867 ft 77 kts 89°
2026-04-22 01:59 27.98932 -82.04982 805 ft 67 kts 83°
2026-04-22 01:59 27.99366 -82.04667 761 ft 97 kts 10°
2026-04-22 02:00 28.00065 -82.04763 896 ft 103 kts
2026-04-22 02:00 28.00749 -82.04995 1055 ft 112 kts 328°
2026-04-22 02:00 28.01080 -82.05864 1081 ft 130 kts 271°
2026-04-22 02:00 28.01047 -82.06885 1196 ft 130 kts 266°
2026-04-22 02:01 28.00969 -82.07903 1346 ft 132 kts 265°
2026-04-22 02:01 28.00899 -82.08913 1575 ft 126 kts 263°
2026-04-22 02:01 28.00808 -82.09914 1725 ft 127 kts 262°
2026-04-22 02:01 28.00401 -82.10769 1853 ft 128 kts 207°
2026-04-22 02:02 27.99622 -82.11044 2069 ft 111 kts 169°
2026-04-22 02:02 27.98995 -82.10683 2139 ft 100 kts 120°
2026-04-22 02:02 27.98947 -82.09901 2131 ft 102 kts 87°
2026-04-22 02:02 27.98999 -82.09125 1787 ft 94 kts 90°
2026-04-22 02:03 27.98971 -82.08416 1495 ft 90 kts 92°
2026-04-22 02:03 27.98953 -82.07705 1339 ft 91 kts 89°
2026-04-22 02:03 27.98938 -82.06999 1157 ft 90 kts 90°
2026-04-22 02:03 27.98932 -82.06279 972 ft 96 kts 90°
2026-04-22 02:04 27.98930 -82.04707 513 ft 103 kts 88°
2026-04-22 02:04 27.98929 -82.03889 327 ft 103 kts 91°
2026-04-22 02:04 27.98927 -82.03107 170 ft 98 kts 90°
2026-04-22 02:05 27.98927 -82.02398 147 ft 82 kts 91°
2026-04-22 02:05 27.98927 -82.01808 149 ft 69 kts 90°
2026-04-22 02:05 27.98929 -82.01297 148 ft 63 kts 90°
2026-04-22 02:05 27.98931 -82.00876 147 ft 38 kts 90°
2026-04-22 02:06 27.98900 -82.00760 145 ft 11 kts 168°
2026-04-22 02:06 27.98830 -82.00755 143 ft 7 kts 177°
2026-04-22 02:06 27.98792 -82.00760 142 ft 5 kts 209°
2026-04-22 02:06 27.98778 -82.00794 142 ft 5 kts 266°
2026-04-22 02:07 27.98778 -82.00796 142 ft 0 kts 267°